Location: Archemont
(49.1579°N, 1.7598°E)
Time: 09:57:31
(UTC+00:00)

Altair - Pass Details

Date: 18 April 2024
Orbit: 1501 x 1682 km, 47.2° (Epoch: 17 May)

Event Time Altitude Azimuth Distance (km) Brightness Sun altitude
Rises 00:53:07 0° 287° (WNW) 4,822 10.1 -28.4°
Reaches altitude 10° 00:56:22 10° 283° (WNW) 3,810 9.5 -28.3°
Maximum altitude 01:05:32 52° 211° (SSW) 1,875 7.5 -27.8°
Enters shadow 01:05:55 51° 203° (SSW) 1,878 7.5 -27.8°
Exits shadow 01:13:52 12° 140° (SE) 3,523 9.1 -27.3°
Drops below altitude 10° 01:14:23 10° 139° (SE) 3,676 9.2 -27.2°
Sets 01:17:28 0° 134° (SE) 4,642 9.8 -27.0°
